Regional Weather Roundup
Issued by NWS Upton, NY

Current Version | Previous Version | Text Only | Print | Product List | Glossary On
Versions: 1 2 3 4 5 6 7 8 9 10 11 12 13 14 15 16 17 18 19 20 21 22 23 24 25 26 27 28 29 30 31 32 33 34 35 36 37 38 39 40 41 42 43 44 45 46 47 48 49 50
000
ASUS41 KOKX 260209
RWROKX

REGIONAL WEATHER ROUNDUP
NATIONAL WEATHER SERVICE NEW YORK NY
1000 PM EDT TUE JUL 25 2017

NOTE: "FAIR" INDICATES FEW OR NO CLOUDS BELOW 12,000 FEET WITH NO
SIGNIFICANT WEATHER AND/OR OBSTRUCTIONS TO VISIBILITY.

NYZ071-072-176-178-NJZ106-104-260300-
NEW YORK CITY METRO AREA

CITY           SKY/WX    TMP DP  RH WIND       PRES   REMARKS
Central Park   CLOUDY    68  59  73 E6        30.23R
Bronx Bot Gard   N/A     66  57  72 CALM      30.22R
LaGuardia APRT CLOUDY    69  61  75 NE9       30.20R
Kennedy INTL   MOCLDY    68  60  75 NE8       30.21R
Breezy Point     N/A     66 N/A N/A NE9         N/A
Newark/Liberty CLOUDY    68  60  75 N9        30.20R
Teterboro      CLOUDY    68  60  75 E6        30.20R
$$

NYZ177-179-078>081-260300-
LONG ISLAND NEW YORK

CITY           SKY/WX    TMP DP  RH WIND       PRES   REMARKS
Jones Beach      N/A     66 N/A N/A NE10        N/A
Matinecock PT    N/A     66 N/A N/A NE13        N/A
Farmingdale    CLOUDY    66  59  78 NE5       30.21R
MacArthur/ISP  CLOUDY    66  59  78 NE8       30.20R
Shirley        CLOUDY    65  60  84 VRB3      30.21R
Mt Sinai Harb    N/A    N/A N/A N/A E5          N/A
Westhampton    CLOUDY    64  58  80 CALM      30.22R
East Hampton   MOCLDY    63  56  79 N3        30.20R
Montauk          N/A     64  57  78 N5        30.21S
$$

NYZ052-065-067-260300-
HUDSON VALLEY

CITY           SKY/WX    TMP DP  RH WIND       PRES   REMARKS
White Plains   MOCLDY    65  57  75 N3        30.22R
Larchmont Harb   N/A     66 N/A N/A N7          N/A
Croton O-T Hud   N/A     64 N/A N/A CALM        N/A
Newburgh       CLOUDY    64  61  88 NE6       30.24R
Montgomery     CLOUDY    64  61  90 N6        30.22R
Poughkeepsie   CLOUDY    64  59  83 CALM      30.22R
Albany         CLOUDY    64  59  83 CALM      30.23R
$$

NJZ001-105-106-008-010-013-015-019>022-104-260300-
NEW JERSEY

CITY           SKY/WX    TMP DP  RH WIND       PRES   REMARKS
Newark/Liberty CLOUDY    68  60  75 N9        30.20R
Teterboro      CLOUDY    68  60  75 E6        30.20R
Caldwell       CLOUDY    67  61  81 E7        30.21R
Somerville     CLOUDY    67  65  93 NE3       30.19R
Linden         CLOUDY    69  59  70 CALM      30.20R
Perth Amboy      N/A     68 N/A N/A E7          N/A
Sussex         CLOUDY    64  63  96 NE5       30.22R
Andover          N/A     65  62  90 CALM      30.22R
Trenton        CLOUDY    67  65  93 SE7       30.19R
Millville      CLOUDY    68  68 100 E3        30.18R
Atlantic City  MOCLDY    68  64  87 E3        30.18R
Wrightstown    CLOUDY    65  64  95 E5        30.17R
Toms River     LGT RAIN  66  63  90 NE7       30.21R
Belmar         CLOUDY    68  61  78 NE3       30.21R
$$

PAZ047>061-062-071-260300-
EASTERN PENNSYLVANIA

CITY           SKY/WX    TMP DP  RH WIND       PRES   REMARKS
Philadelphia   CLOUDY    71  65  81 E10       30.18R
Allentown      CLOUDY    70  62  76 E6        30.20R
Scranton       CLOUDY    66  59  78 N7        30.23R
$$

CTZ002-004>006-009-010-012-RIZ004-006-007-MAZ004-011-015-260300-
SOUTHERN NEW ENGLAND
 IN CT

CITY           SKY/WX    TMP DP  RH WIND       PRES   REMARKS
Bradley INTL   MOCLDY    62  59  90 W3        30.23R
Hartford       PTCLDY    64  57  78 N3        30.22R
Danbury        CLOUDY    64  57  78 NE6       30.24R
Wtrbury/Oxford CLOUDY    63  54  72 NE6       30.24R
Bridgeport     CLOUDY    67  57  70 NE7       30.21R
Meriden        CLOUDY    64  57  78 CALM      30.22R
New Haven      CLOUDY    65  57  75 NE5       30.22R
Chester        FAIR      63  57  82 CALM      30.22S
Groton         CLEAR     60  56  86 N3        30.20R
Wilimantic     CLEAR     61  58  90 CALM      30.22R

 IN RI

CITY           SKY/WX    TMP DP  RH WIND       PRES   REMARKS
Providence     CLEAR     60  58  92 NW3       30.21R
Block Island   CLEAR     61  57  87 N6        30.20S
Westerly       PTCLDY    60  57  89 CALM      30.21R
 IN MA

CITY           SKY/WX    TMP DP  RH WIND       PRES   REMARKS
Boston         CLEAR     61  53  75 CALM      30.21R
Worcester      CLEAR     55  53  93 NW5       30.23R
Westfield      CLOUDY    62  61  96 CALM      30.23R
Provincetown   CLEAR     57  55  93 NW5       30.19S
Nantucket      CLOUDY    61  57  87 N13       30.16S
$$

ANZ330-335-338-340-345-350-353-355-260300-
COASTAL MARINE OBSERVATIONS


STATION/POSITION TIME  SKY/WX   TEMP    WIND        PRES    VSBY  WAVE
                                AIR SEA DIR/SP/G                  HT/PER
                 (UTC)          (F)     (DEG/KT/KT) (MB)    (MI)  (FT/S)
NY HARB ENTRANCE 0050            68 70   60/ 10/ 12 1021.3          3/ 6
20 S FIRE ISLAND 0150            67 73   60/ 12/ 14 1021.8          3/ 6
GREAT SOUTH BAY  0130            67 75   40/  8/ 10   N/A
23 SSW MONTAUK P 0050            65 72              1022.3          3/ 7
15 E BARNEGAT LI 0130               71                N/A           3/ 4
HUDSON CANYON    0050            67 74   60/ 14/ 16 1020.4          3/ 4
KINGS POINT      0130            66 72  110/  1/  3 1022.6
EXECUTION ROCKS  0145            68      50/ 10/ 12   N/A
CENTRAL LI SOUND NOT AVBL
EASTERN LI SOUND NOT AVBL
ROBBINS REEF     0130                    60/ 11/ 14 1022.8
$$


>>>>>>>>>>>>>>>>>>>>>>>>>>>> KEY <<<<<<<<<<<<<<<<<<<<<<<<<<<
>                                                          <
>     SKY/WX - Sky Condition/Present Weather               <
>     TMP    - Temperature in Fahrenheit                   <
>     DP     - Dew Point in Fahrenheit                     <
>     RH     - Relative Humidity in Percent                <
>     WIND   - Direction (from) and Speed in MPH           <
>     PRES   - Mean Sea Level Pressure (inches of Hg)      <
>     WCI    - Wind Chill Index                            <
>     VSB    - VISIBILITY IN MILES                         <
>     HX     - HEAT INDEX                                  <
>     TC     - TEMPERATURE IN CELSIUS                      <
>     VRB    - VARIABLE WIND DIRECTION                     <
>                                                          <
>>>>>>>>>>>>>>>>>>>>>>>>>>>> KEY <<<<<<<<<<<<<<<<<<<<<<<<<<<



USA.gov is the U.S. government's official web portal to all federal, state and local government web resources and services.